Regional Weather Roundup
Issued by NWS

Home | Current Version | Previous Version | Text Only | Print | Product List | Glossary On
Versions: 1 2 3 4 5 6 7 8 9 10 11 12 13 14 15 16 17 18 19 20 21 22 23 24 25 26 27 28 29 30 31 32 33 34 35 36 37 38 39 40 41 42 43 44 45 46 47 48 49 50
000
ASUS43 KDTX 160110
RWRMI
MICHIGAN HOURLY REGIONAL WEATHER ROUNDUP
NATIONAL WEATHER SERVICE DETROIT/PONTIAC MI
900 PM EDT TUE APR 15 2014

NOTE: "FAIR" INDICATES FEW OR NO CLOUDS BELOW 12,000 FEET WITH NO
SIGNIFICANT WEATHER AND/OR OBSTRUCTION TO VISIBILITY.

MIZ047>049-052>055-059>063-066>070-074>076-081>083-160200-
SOUTHEAST LOWER MICHIGAN

CITY           SKY/WX    TMP DP  RH WIND       PRES   REMARKS
ADRIAN         PTCLDY    30  12  47 NW8       30.18R
ALMA           PTCLDY    28   7  41 NW8       30.16R
ANN ARBOR      PTCLDY    30   9  41 NW10      30.16R
BAD AXE        PTCLDY    26   8  45 NW9       30.15R
DETROIT CITY   PTCLDY    32  12  43 NW7       30.16R
DETROIT        MOCLDY    31  14  49 NW7       30.17R
FLINT          PTCLDY    29  11  47 NW7       30.16R
GROSSE ILE     PTCLDY    30  16  55 NW8       30.15R
HILLSDALE      CLEAR     28   6  40 NW7       30.17R
HOWELL         PTCLDY    28  10  48 NW6       30.16R

CITY           SKY/WX    TMP DP  RH WIND       PRES   REMARKS
JACKSON        PTCLDY    27  10  49 W6        30.17R
LAMBERTVILLE   MOCLDY    32  16  51 CALM      30.18R
LANSING        PTCLDY    29   6  38 W10       30.18R
LAPEER         NOT AVBL
MASON          PTCLDY    28  11  48 W7        30.16R
MONROE         PTCLDY    30  14  51 NW6       30.16R
MT. CLEMENS    PTCLDY    29  12  48 NW8       30.15R
PONTIAC        PTCLDY    28   9  44 NW10      30.13R
PORT HOPE        N/A     28  11  48 NW8G17    30.13R
PORT HURON     PTCLDY    28  12  50 NW6       30.16R
TRI CITIES     PTCLDY    28  11  48 NW7       30.17R
YPSILANTI      PTCLDY    31  15  52 NW6       30.17R
$$
MIZ043>046-050>051-056>058-064>065-071>073-077>080-160200-
SOUTHWEST LOWER MICHIGAN

CITY           SKY/WX    TMP DP  RH WIND       PRES   REMARKS
BATTLE CREEK   CLEAR     28   8  43 NW7       30.18R
BENTON HARBOR  CLEAR     28  13  53 CALM      30.20R
BIG RAPIDS     CLEAR     28  11  49 W5        30.14R
COLDWATER      CLEAR     28  10  47 NW3       30.18R
HOLLAND        CLEAR     29  15  56 W5        30.20R
GRAND RAPIDS   PTCLDY    30  10  43 W9        30.18R
KALAMAZOO      CLEAR     28   9  44 NW7       30.19R
MARSHALL       CLEAR     26   7  44 W3        30.17R
MUSKEGON       PTCLDY    27  14  58 SW6       30.19R
$$
MIZ016>042-160200-
NORTHERN LOWER MICHIGAN

CITY           SKY/WX    TMP DP  RH WIND       PRES   REMARKS
ALPENA         PTCLDY    23  11  60 NW5       30.13R
BEAVER ISLAND  LGT SNOW  23  21  91 CALM      30.13R
BELLAIRE       CLEAR     27  13  56 CALM      30.13R
CADILLAC       CLEAR     23  11  61 W5        30.10R
CHARLEVOIX     CLOUDY    27  16  65 SW6       30.15R
FRANKFORT      CLEAR     27  19  72 SW5       30.14R
GAYLORD        MOCLDY    22   9  57 W6        30.08R
GRAYLING       CLEAR     22   7  52 CALM      30.11R
HARBOR SPRINGS FLURRIES  25  17  72 W5        30.12R
HOUGHTON LAKE  CLEAR     24   9  52 W7        30.11R
MANISTEE       PTCLDY    27  16  63 SW8       30.16R
OSCODA         CLEAR     25   6  44 W3        30.13R
PELLSTON       CLOUDY    20  16  84 NW5       30.13R
TRAVERSE CITY  PTCLDY    28  12  51 W7        30.13R
$$
MIZ007>008-015-160200-
EASTERN UPPER MICHIGAN

CITY           SKY/WX    TMP DP  RH WIND       PRES   REMARKS
KINROSS        CLEAR     18  12  79 NW7       30.11R
MACKINAC ISLAN CLOUDY    22  18  83 W9        30.12R
NEWBERRY       CLEAR     17  11  77 CALM      30.12R
S. S. MARIE    CLEAR     18   8  65 W8        30.10R
$$
MIZ004>006-011>014-085-160200-
CENTRAL UPPER MICHIGAN

CITY           SKY/WX    TMP DP  RH WIND       PRES   REMARKS
MANISTIQUE     MOCLDY    21  14  76 NW6       30.12R
ESCANABA       MOCLDY    23  19  86 CALM      30.11R
MENOMINEE      CLOUDY    30  14  51 CALM      30.11R
SAWYER-GWINN   CLEAR     18  12  79 NE3       30.08R
$$
MIZ001>003-009>011-084-160200-
WESTERN UPPER MICHIGAN

CITY           SKY/WX    TMP DP  RH WIND       PRES   REMARKS
IRON MOUNTAIN  PTCLDY    25   8  48 CALM      30.06R
HOUGHTON       CLEAR     21   4  47 W3        30.06R
COPPER HARBOR    N/A     23   8  52 CALM      30.09R
IRONWOOD       CLEAR     27   1  33 CALM      30.03R
$$

ABBREVIATIONS USED IN REMARKS
   TC - TEMPERATURE IN CELSIUS
  WCI - WIND CHILL INDEX
   HX - HEAT INDEX
  VSB - VISIBILITY




USA.gov is the U.S. government's official web portal to all federal, state and local government web resources and services.